Regional Weather Roundup
Issued by NWS

Home | Current Version | Previous Version | Text Only | Print | Product List | Glossary Off
Versions: 1 2 3 4 5 6 7 8 9 10 11 12 13 14 15 16 17 18 19 20 21 22 23 24 25 26 27 28 29 30 31 32 33 34 35 36 37 38 39 40 41 42 43 44 45 46 47 48 49 50

000
ASUS43 KLSX 210907
RWRMO

WEATHER SUMMARY FOR MISSOURI
NATIONAL WEATHER SERVICE SPRINGFIELD MO
400 AM CDT MON AUG 21 2017

NOTE: "FAIR" INDICATES FEW OR NO CLOUDS BELOW 12,000 FEET WITH NO
       SIGNIFICANT WEATHER AND/OR OBSTRUCTIONS TO VISIBILITY.
       CURRENT SKY AND/OR WEATHER CONDITIONS ARE NOT AVAILABLE FOR
       CHILLICOTHE AND FARMINGTON.

MOZ001>031-035>038-043-044-053-054-211000-
...NORTHERN AND WESTERN MISSOURI...

CITY           SKY/WX    TMP DP  RH WIND       PRES   REMARKS
KANSAS CTY INT CLEAR     74  69  85 S9        29.99S
KANSAS C DTWN  PTCLDY    79  69  71 S9        29.98S
LEE`S SUMMIT   CLEAR     76  67  73 SW12      30.01S
ST JOSEPH      CLEAR     73  71  93 S5        29.99R
CHILLICOTHE      N/A     70  68  93 SE3       30.01S
KIRKSVILLE     CLOUDY    68  67  96 S5        30.03S

$$
MOZ066>068-077>081-088>096-101>105-211000-
...SOUTHWEST MISSOURI...

CITY           SKY/WX    TMP DP  RH WIND       PRES   REMARKS
SPRINGFIELD    CLOUDY    71  70  96 S9        30.07R
JOPLIN         PTCLDY    77  73  87 S8        30.04F
BRANSON        CLEAR     77  73  88 S3        30.09S

$$
MOZ032>034-039>042-045>050-055>058-069>072-211000-
...CENTRAL MISSOURI...

CITY           SKY/WX    TMP DP  RH WIND       PRES   REMARKS
COLUMBIA       PTCLDY    69  69 100 S7        30.06R
JEFFERSON CITY CLEAR     72  72 100 CALM      30.04R
ROLLA          CLEAR     73  71  93 S8        30.09R
SEDALIA        CLEAR     74  66  76 S9        30.05R
WHITEMAN AFB   MOCLDY    70  70  99 S7        30.03R
WARRENSBURG    PTCLDY    68  64  88 SE7       30.02R
OSAGE BEACH    CLEAR     72  68  87 S6        30.07R

$$
MOZ051-052-059>065-211000-
...EAST CENTRAL MISSOURI...

CITY           SKY/WX    TMP DP  RH WIND       PRES   REMARKS
ST LOUIS INTL  PTCLDY    78  74  87 S6        30.06S
SPIRIT OF STL  CLEAR     75  73  93 NW3       30.04S
ST CHARLES     PTCLDY    73  71  93 CALM      30.04S

$$
MOZ072>076-082>087-097>100-106>115-211000-
...SOUTH CENTRAL AND SOUTHEAST MISSOURI...

CITY           SKY/WX    TMP DP  RH WIND       PRES   REMARKS
CAPE GIRARDEAU PTCLDY    70  67  90 CALM      30.08S
FARMINGTON     CLEAR     72  71  97 S5        30.11R
POPLAR BLUFF   CLEAR     72  72 100 CALM      30.07S
WEST PLAINS    CLEAR     73  70  90 NE3       30.11S

$$



USA.gov is the U.S. government's official web portal to all federal, state and local government web resources and services.